Weather observations for the past three days for
Concord, Buchanan Field
Imperial (Metric)
Date Time (pdt) Wind (mph) Vis. (mi.) Weather Sky Cond. Temperature (ºF) Relative Humidity Wind Chill (°F) Heat Index (°F) Pressure Precipitation (in)
Air Dwpt 6 hour altimeter (in) sea level (mb) 1 hr 3 hr 6 hr
Max. Min.
24 08:53 NW 9 10.00 Fair CLR 79 53.1 41% 79 29.99 1014.3
24 07:53 NW 3 10.00 Fair CLR 75 51.1 43% 78 29.99 1014.1
24 06:53 NW 7 10.00 Fair CLR 72 52 50% 29.97 1013.5
24 05:53 NW 5 9.00 Fair CLR 69.1 53.1 57% 29.96 1013.1
24 04:53 N 6 10.00 Fair CLR 71.1 53.1 82 71.1 53% 29.94 1012.6
24 03:53 Calm 10.00 Fair CLR 75 46 36% 77 29.92 1011.9
24 02:53 Calm 10.00 Fair CLR 75 46.9 37% 77 29.91 1011.6
24 01:53 N 5 10.00 Fair CLR 75 46.9 37% 77 29.92 1011.7
24 00:53 Calm 10.00 Fair CLR 78.1 39.9 26% 78 29.92 1011.7
23 23:53 Calm 10.00 Fair CLR 80.1 37 21% 79 29.92 1011.7
23 22:53 Calm 10.00 Fair CLR 80.1 37 102.9 80.1 21% 79 29.91 1011.5
23 21:53 S 5 10.00 Fair CLR 84 37 19% 81 29.89 1010.9
23 20:53 W 8 10.00 Fair CLR 86 30 13% 83 29.88 1010.5
23 19:53 SW 6 10.00 Fair CLR 91 23 8% 87 29.86 1009.8
23 18:53 SW 15 10.00 Fair CLR 96.1 37 13% 91 29.84 1009.2
23 17:53 SW 15 10.00 Fair CLR 99 41 14% 94 29.82 1008.5
23 16:53 W 10 10.00 Fair CLR 102.9 39 104 87.1 11% 98 29.82 1008.4
23 15:53 W 15 10.00 Fair CLR 102 39 11% 97 29.82 1008.5
23 14:53 NW 15 10.00 Fair CLR 102 35.1 10% 97 29.83 1008.9
23 12:53 NW 8 10.00 Fair CLR 97 51.1 21% 94 29.85 1009.6
23 11:53 N 9 10.00 Fair CLR 91.9 57 31% 91 29.85 1009.6
23 10:53 NW 7 10.00 Fair CLR 87.1 57.9 87.1 66 37% 86 29.86 1009.9
23 09:53 Calm 10.00 Fair CLR 82 57 43% 82 29.87 1010.1
23 08:53 Calm 10.00 Fair CLR 75 57.9 55% 78 29.87 1010.0
23 07:53 N 6 10.00 Fair CLR 72 57.9 61% 29.86 1009.8
23 06:53 Calm 10.00 Fair CLR 68 55.9 65% 29.85 1009.3
23 05:53 Calm 10.00 Fair CLR 66 54 65% 29.83 1008.8
23 04:53 NW 5 10.00 Fair CLR 66.9 54 77 66.9 63% 29.81 1008.2
23 03:53 Calm 10.00 Fair CLR 68 54 61% 29.81 1008.0
23 02:53 NW 7 10.00 Fair CLR 68 55 63% 29.81 1008.0
23 01:53 NW 7 10.00 Fair CLR 70 54 57% 29.8 1007.6
23 00:53 N 3 10.00 Fair CLR 73.9 51.1 45% 29.79 1007.4
22 23:53 Calm 10.00 Fair CLR 77 50 39% 78 29.79 1007.4
22 22:53 NW 5 10.00 Fair CLR 77 52 99 77 42% 78 29.79 1007.4
22 21:53 NW 6 10.00 Fair CLR 80.1 51.1 37% 80 29.78 1007.1
22 20:53 W 5 10.00 Fair CLR 82.9 51.1 33% 81 29.77 1006.9
22 19:53 W 10 10.00 Fair CLR 88 52 29% 86 29.76 1006.4
22 18:53 W 13 10.00 Fair CLR 91.9 53.1 27% 89 29.75 1006.1
22 17:53 NW 13 10.00 Fair CLR 96.1 55 25% 94 29.74 1005.9
22 16:53 NW 13 10.00 Fair CLR 98.1 57.9 99 79 26% 97 29.74 1005.9
22 15:53 NW 15 10.00 Fair CLR 97 59 28% 97 29.76 1006.6
22 14:53 NW 13 10.00 Fair CLR 93.9 59 31% 93 29.78 1007.2
22 13:53 NW 12 10.00 Fair CLR 93 59 32% 92 29.8 1007.9
22 12:53 NW 10 10.00 Fair CLR 89.1 59 36% 88 29.82 1008.5
22 11:53 NW 9 10.00 Fair CLR 84 60.1 44% 84 29.83 1008.8
22 10:53 N 6 10.00 Fair CLR 79 59 79 59 50% 80 29.83 1008.9
22 09:53 NW 5 10.00 Fair CLR 73.9 59 60% 29.85 1009.4
22 08:53 NW 6 10.00 Fair CLR 70 57.9 66% 29.85 1009.6
22 07:53 Calm 9.00 Fair CLR 66 57.9 75% 29.85 1009.3
22 06:53 Calm 6.00 Fair with Haze CLR 62.1 57 84% 29.84 1009.1
22 05:53 N 5 6.00 Fog/Mist CLR 60.1 55.9 86% 29.83 1008.8
22 04:53 N 3 7.00 Fair CLR 60.1 55 68 59 84% 29.82 1008.5
22 03:53 N 3 9.00 Fair CLR 61 55 81% 29.82 1008.3
22 02:53 N 5 10.00 Fair CLR 61 55 81% 29.82 1008.4
22 01:53 NW 5 10.00 Fair CLR 62.1 55 78% 29.82 1008.5
22 00:53 NW 6 10.00 Fair CLR 63 55 76% 29.83 1008.7
21 23:53 NW 3 10.00 Fair CLR 64.9 55 70% 29.83 1008.7
21 22:53 NW 6 10.00 Fair CLR 68 55.9 84 68 65% 29.83 1008.9
21 21:53 S 14 10.00 Fair CLR 72 54 53% 29.83 1008.7
21 20:53 S 16 10.00 Fair CLR 73.9 53.1 48% 29.83 1008.7
21 19:53 S 12 10.00 Fair CLR 77 54 45% 78 29.83 1008.7
21 18:53 S 15 10.00 Fair CLR 80.1 54 41% 80 29.82 1008.4
21 17:53 S 15 10.00 Fair CLR 82 55 40% 81 29.82 1008.6
21 16:53 S 15 10.00 Fair CLR 84 55.9 84.9 69.1 38% 83 29.84 1009.0
21 15:53 S 15 10.00 Fair CLR 84 55.9 38% 83 29.86 1009.7
21 14:53 S 17 10.00 Fair CLR 82 55 40% 81 29.87 1010.3
21 13:53 S 16 10.00 Fair CLR 81 55 41% 81 29.89 1011.0
21 12:53 S 16 10.00 Fair CLR 78.1 54 43% 79 29.91 1011.4
21 11:53 S 20 10.00 Fair CLR 73 54 51% 29.92 1011.9
21 10:53 S 17 10.00 Fair CLR 69.1 55 69.1 57.9 61% 29.94 1012.3
21 09:53 S 20 10.00 Fair CLR 64.9 54 68% 29.94 1012.5
Date Time (pdt) Wind (mph) Vis. (mi.) Weather Sky Cond. Air Dwpt Max. Min. Relative Humidity Wind Chill (°F) Heat Index (°F) altimeter (in) sea level (mb) 1 hr 3 hr 6 hr
6 hour
Temperature (ºF) Pressure Precipitation (in)